User: anonymous   Login
Location: Unspecified
(0.0000°N, 0.0000°E)
Time: 23:37:40
(UTC+00:00)
Language:

IDEFIX/ARIANE 42P - Orbit

View from above orbital plane
View from above orbital plane
View from above satellite
View from above satellite

Ground track
Ground track

The orbit data is extracted from the following two-line orbital elements,

1 27422U 02021B   18140.59169816 -.00000007 +00000-0 +13156-4 0  9999
2 27422 098.2548 127.6096 0011444 321.8849 038.1523 14.29262043836760
Epoch (UTC): 20 May 2018 14:12:02
Eccentricity: 0.0011444
inclination: 98.2548°
perigee height: 786 km
apogee height: 802 km
right ascension of ascending node: 127.6096°
argument of perigee: 321.8849°
revolutions per day: 14.29262043
mean anomaly at epoch: 38.1523°
orbit number at epoch: 83676

The dashed part of the orbit path shows where the satellite is in the earth's shadow,  

DLR